Location: Exeidioux
(45.6312°N, 1.6819°E)
Time: 16:34:14
(UTC+00:00)

Meteor 1-13 Rocket - Pass Details

Date: 03 March 2021
Orbit: 830 x 913 km, 81.3° (Epoch: 11 April)

Event Time Altitude Azimuth Distance (km) Brightness Sun altitude
Rises 19:35:50 0° 349° (N) 3,557 7.7 -20.4°
Reaches altitude 10° 19:38:19 10° 350° (N) 2,608 7.0 -20.8°
Maximum altitude 19:44:18 84° 79° (ENE) 915 4.2 -21.9°
Enters shadow 19:48:36 19° 167° (SSE) 1,976 5.9 -22.6°
